Location: *
(28.2408°N, 53.4600°E)
Time: 12:06:26
(UTC+00:00)

Cosmos 1371 Rocket - Pass Details

Date: 22 September 2019
Orbit: 753 x 790 km, 74.0° (Epoch: 18 October)

Event Time Altitude Azimuth Distance (km) Brightness Sun altitude
Rises 14:41:43 0° 180° (S) 3,226 7.2 -4.9°
Reaches altitude 10° 14:44:09 10° 174° (S) 2,308 6.4 -5.4°
Maximum altitude 14:49:10 47° 101° (ESE) 1,025 4.3 -6.5°
Drops below altitude 10° 14:54:15 10° 29° (NNE) 2,341 6.3 -7.6°
Sets 14:56:43 0° 24° (NNE) 3,277 7.1 -8.2°
